DW5595 Weather Reports


time (UTC)temp
C
wind
direction
speed
KPH
gust
KPH
rain 1hr
cm
rain 24hr
cm
rain mn
cm
humidity
%
barometer
mb
20260504003038 13 157 0.0 0.0 0.00 0.00 0.00 57 1015.5
20260504001527 15 159 0.0 3.2 0.00 0.00 0.00 50 1015.3
20260504000046 16 132 0.0 0.0 0.00 0.00 0.00 45 1015.1
20260503234516 17 147 0.0 4.8 0.00 0.00 0.00 40 1015.1
20260503233011 17 144 0.0 6.4 0.00 0.00 0.00 37 1015.1
20260503231530 18 130 1.6 4.8 0.00 0.00 0.00 34 1015.0
20260503230026 18 142 1.6 11.3 0.00 0.00 0.00 33 1015.2
20260503224529 18 146 3.2 8.0 0.00 0.00 0.00 32 1015.1
20260503223028 18 157 4.8 12.9 0.00 0.00 0.00 31 1015.1
20260503221520 18 117 4.8 14.5 0.00 0.00 0.00 32 1015.2
20260503220020 18 169 3.2 11.3 0.00 0.00 0.00 31 1015.4
20260503214519 19 177 3.2 9.7 0.00 0.00 0.00 37 1015.4
20260503213026 18 191 3.2 9.7 0.00 0.00 0.00 33 1015.7
20260503211527 19 152 1.6 12.9 0.00 0.00 0.00 34 1015.8
20260503210027 18 187 3.2 11.3 0.00 0.00 0.00 34 1015.9
20260503204523 18 302 4.8 14.5 0.00 0.00 0.00 33 1016.0
20260503203029 18 97 3.2 11.3 0.00 0.00 0.00 33 1016.4
20260503201518 18 304 3.2 12.9 0.00 0.00 0.00 36 1016.5
20260503200027 18 141 6.4 17.7 0.00 0.00 0.00 35 1016.8
20260503194528 18 94 3.2 11.3 0.00 0.00 0.00 34 1016.9
20260503193028 18 107 0.0 16.1 0.00 0.00 0.00 34 1017.2
20260503191524 18 237 1.6 9.7 0.00 0.00 0.00 32 1017.3
20260503190025 18 265 0.0 4.8 0.00 0.00 0.00 32 1017.5
20260503184523 17 121 3.2 12.9 0.00 0.00 0.00 31 1017.6
20260503183025 17 342 3.2 19.3 0.00 0.00 0.00 29 1017.7
20260503181517 17 309 9.7 14.5 0.00 0.00 0.00 32 1017.9
20260503180024 17 332 6.4 12.9 0.00 0.00 0.00 33 1018.2
20260503174514 16 360 6.4 12.9 0.00 0.00 0.00 34 1018.2
20260503173018 16 42 1.6 11.3 0.00 0.00 0.00 34 1018.4
20260503171504 16 180 6.4 11.3 0.00 0.00 0.00 36 1018.7
20260503081527 2 154 0.0 3.2 0.00 0.00 0.00 92 1017.5
20260503071528 2 154 1.6 1.6 0.00 0.00 0.00 91 1017.0
20260503054510 3 154 0.0 3.2 0.00 0.00 0.00 89 1016.6
20260503053010 3 154 0.0 3.2 0.00 0.00 0.00 88 1016.5
20260503051507 3 154 1.6 1.6 0.00 0.00 0.00 88 1016.4
20260503043008 5 160 0.0 3.2 0.00 0.00 0.00 85 1016.1
20260503041510 5 132 0.0 1.6 0.00 0.00 0.00 81 1016.0
20260503040006 5 152 0.0 3.2 0.00 0.00 0.00 81 1015.7
20260503033010 6 352 0.0 3.2 0.00 0.00 0.00 79 1015.6
20260503031508 7 352 0.0 3.2 0.00 0.00 0.00 76 1015.5
20260503030008 7 352 0.0 3.2 0.00 0.00 0.00 74 1015.4
20260503024508 8 352 0.0 3.2 0.00 0.00 0.00 73 1015.2
20260503023030 8 352 0.0 3.2 0.00 0.00 0.00 70 1015.2
20260503021508 10 352 0.0 3.2 0.00 0.00 0.00 63 1015.0
20260503020012 10 352 0.0 3.2 0.00 0.00 0.00 56 1015.0
20260503014508 11 352 0.0 3.2 0.00 0.00 0.00 54 1014.6
20260503013013 12 352 0.0 3.2 0.00 0.00 0.00 51 1014.3
20260503011507 13 352 1.6 8.0 0.00 0.00 0.00 44 1014.1
20260503010014 13 5 1.6 6.4 0.00 0.00 0.00 43 1013.8
20260503004509 13 13 3.2 11.3 0.00 0.00 0.00 42 1013.5